Wind_Speed
8 8 9 9 9 10 10 9 9 9 10 10 11 11 11 11 11 11 12 12 13 12 12 12 12 11 11 12 12 12 12 13 12 12 12 12 12 12 12 13 14 14 14
9 9 9 10 10 10 10 10 10 10 11 11 12 12 12 12 13 13 13 14 14 14 14 13 12 12 12 13 13 13 13 13 13 13 13 13 13 14 14 14 14 14 14
9 9 10 10 11 10 10 11 11 11 11 12 12 13 13 13 13 13 14 14 15 15 15 14 14 13 13 13 13 13 13 14 15 15 14 15 15 15 16 16 16 16 16
10 10 10 10 11 11 11 11 11 11 11 12 12 13 14 14 14 14 15 16 17 18 17 16 15 14 14 14 14 14 14 15 16 17 17 16 16 16 16 17 17 18 18
10 11 11 11 11 11 12 12 12 12 12 13 13 14 15 15 15 16 16 17 18 18 18 17 17 16 15 15 15 15 16 16 16 17 17 17 17 17 17 17 17 17 18
12 13 13 13 13 13 13 13 13 13 13 13 14 15 16 16 17 17 17 18 19 19 19 18 18 17 16 16 16 16 17 18 18 18 18 18 18 18 18 18 18 18 19
14 14 14 14 14 14 14 14 15 15 15 15 16 16 17 17 18 18 19 19 19 20 19 19 19 18 17 17 17 18 18 19 19 19 19 19 19 19 19 19 19 19 20
15 15 15 15 15 15 15 16 16 17 16 17 17 18 18 19 19 20 20 20 20 20 20 19 18 18 18 18 18 19 19 20 20 19 20 20 19 19 19 19 19 19 19
15 15 15 16 16 16 16 16 17 17 17 17 18 19 20 21 21 21 21 21 21 21 21 20 20 20 19 19 20 20 21 21 20 20 20 20 20 20 19 20 20 20 20
15 16 17 17 17 18 18 18 18 18 18 18 19 20 21 22 22 22 22 22 22 22 22 21 21 20 20 21 20 21 22 22 21 21 21 21 21 20 20 20 21 20 20
18 18 18 19 19 19 19 19 19 19 19 20 21 22 22 22 22 22 23 23 23 23 23 22 22 21 21 21 21 22 23 23 22 21 21 21 22 22 21 22 21 21 21
19 19 19 20 20 21 20 20 21 21 21 21 22 23 23 23 23 23 23 23 23 24 23 24 22 21 22 22 23 23 23 23 23 23 22 22 22 22 22 22 22 21 21
21 21 21 22 22 22 22 22 22 22 23 23 23 23 24 24 24 24 24 25 24 24 24 24 22 23 23 24 24 24 24 24 24 24 23 22 22 23 23 23 23 22 22
22 23 23 23 24 23 23 23 23 23 24 24 24 24 25 25 26 26 26 26 25 24 25 24 23 24 24 24 24 24 24 24 25 24 23 23 23 23 23 23 23 23 23
23 24 24 24 24 24 24 23 24 24 25 25 25 25 26 26 26 27 26 25 25 25 25 25 25 25 26 26 25 25 25 26 25 25 24 24 24 24 24 24 24 25 24
24 24 24 24 24 25 25 25 25 26 26 26 26 26 26 26 27 27 27 27 27 27 26 25 26 26 26 26 26 26 26 26 25 25 25 24 24 25 26 25 26 26 25
26 25 25 25 25 26 26 26 26 26 27 26 26 27 27 26 27 27 27 28 28 27 25 25 26 26 26 27 26 26 26 25 25 26 26 25 25 25 26 26 26 27 27
27 27 27 27 26 27 27 27 27 27 27 28 28 28 27 27 28 28 27 27 27 27 27 27 27 27 27 27 26 26 26 27 27 27 26 26 25 25 25 25 26 27 26
29 29 29 28 28 28 28 28 28 28 29 29 29 29 28 29 29 28 28 28 28 28 28 28 28 28 28 28 27 27 27 27 27 27 27 27 26 26 26 27 27 26 26
30 30 30 30 30 30 30 30 30 30 31 31 31 30 29 29 29 29 29 29 29 28 29 29 29 29 29 29 29 29 28 27 26 26 27 26 26 26 26 27 26 26 26
31 31 32 32 31 31 31 31 31 32 32 32 32 31 31 30 30 30 30 30 30 30 30 29 30 30 29 29 29 29 28 28 27 26 26 26 26 27 26 26 26 26 26
32 32 32 32 32 32 32 32 33 33 33 32 32 32 32 32 31 32 32 32 31 31 31 30 29 29 30 30 29 29 28 28 27 26 26 26 27 27 27 27 27 27 27
32 32 33 33 33 33 33 34 34 34 34 34 34 33 33 33 33 33 33 33 32 32 31 30 29 30 30 30 30 30 29 28 28 28 28 28 28 28 27 27 27 27 27
33 33 33 33 33 34 34 33 34 35 35 35 35 34 34 34 33 33 33 33 32 32 31 31 31 31 30 30 30 30 30 29 29 29 29 29 28 28 27 27 27 27 26
33 33 33 33 34 35 35 35 35 36 36 35 35 36 35 34 33 34 34 34 33 33 33 32 31 31 31 31 31 30 30 30 30 30 30 30 29 28 27 27 27 27 27
34 34 34 35 35 35 35 36 36 36 35 35 35 36 35 34 34 34 35 35 34 34 33 33 33 32 32 32 31 30 30 31 31 31 31 30 29 28 27 27 27 27 27
Wind_Direction
327 327 324 327 331 332 335 334 333 332 331 332 332 332 333 332 331 331 330 329 332 329 327 324 323 322 319 317 315 313 308 304 303 303 300 297 298 294 291 284 281 282 281
316 317 320 321 321 324 327 327 329 329 327 327 327 328 329 330 329 327 327 327 326 324 324 324 321 319 317 316 315 312 310 308 305 302 300 299 296 292 291 290 286 284 283
309 311 314 317 318 321 321 322 322 324 322 324 324 325 326 327 327 325 324 323 321 320 319 318 317 315 312 312 311 309 309 308 305 302 300 298 295 291 291 290 288 285 285
303 308 310 313 315 318 319 320 320 319 318 320 321 321 322 323 323 322 322 322 320 318 317 319 316 311 308 309 310 311 310 309 305 300 298 296 293 292 290 290 288 284 282
299 303 304 306 308 311 315 317 319 318 317 316 317 319 320 320 320 320 322 323 322 319 316 314 315 310 308 308 308 310 310 308 306 303 299 295 294 291 289 291 288 284 282
293 296 299 300 302 305 308 310 313 314 314 313 314 315 317 317 318 318 319 320 320 319 314 310 311 310 307 306 307 307 307 307 306 305 304 299 298 296 292 289 286 286 284
287 288 291 296 298 300 303 306 308 309 308 309 311 312 313 314 316 316 316 317 317 318 315 311 310 313 312 309 307 307 307 307 305 304 304 301 299 298 296 292 289 287 286
286 287 287 291 294 297 299 301 305 305 304 305 306 306 308 311 312 314 314 315 316 316 317 312 311 314 314 310 307 306 306 306 305 304 302 300 299 298 297 296 293 289 285
284 285 285 286 289 293 295 297 300 303 302 301 303 306 308 308 309 310 311 312 313 313 311 309 311 313 313 312 309 308 306 305 304 301 300 299 298 299 297 295 294 290 286
283 285 285 285 287 289 293 295 297 300 303 300 300 304 306 306 306 306 307 308 309 309 307 306 309 311 311 310 309 309 308 304 301 298 297 296 294 294 294 294 294 291 289
281 281 283 284 286 288 290 294 296 300 301 302 300 301 302 303 303 303 304 305 306 307 305 306 307 308 309 309 309 309 308 305 303 301 298 295 293 293 293 295 294 294 292
281 283 283 284 286 287 289 291 294 298 300 302 302 300 300 301 300 300 302 305 305 305 306 308 308 307 307 308 309 308 307 305 303 303 300 295 293 293 292 294 294 294 294
281 283 282 285 285 284 286 289 292 296 299 301 302 301 299 301 300 301 302 302 301 302 305 307 307 307 305 305 306 307 307 306 303 302 299 295 294 294 292 292 293 294 294
281 282 283 284 284 283 283 286 290 294 297 299 300 300 299 299 299 299 299 298 297 298 300 302 304 304 305 305 305 305 304 305 305 303 299 294 294 295 294 294 293 293 292
280 282 282 282 284 284 284 286 289 291 294 296 297 298 298 297 297 297 297 297 296 297 298 300 302 303 303 302 303 302 301 301 301 300 299 298 296 294 294 295 295 294 292
277 279 280 281 282 283 283 286 288 289 291 293 295 296 296 295 297 298 297 295 295 294 295 298 301 301 302 301 301 300 300 300 300 299 299 299 298 297 295 296 297 297 295
277 278 279 280 283 284 283 284 286 288 290 292 293 295 295 295 296 297 297 296 295 294 295 298 299 300 300 300 299 298 298 298 299 299 299 298 298 298 296 296 296 298 296
278 279 280 281 282 283 284 284 285 286 288 289 291 293 292 292 292 292 296 298 298 299 297 297 298 298 298 298 296 296 297 297 298 299 299 299 297 297 296 296 296 295 294
278 279 279 280 282 281 282 283 284 285 287 288 289 290 291 291 292 294 297 297 296 297 297 297 297 298 298 297 296 295 297 297 297 299 300 299 298 297 296 296 297 297 296
277 278 279 280 281 280 281 282 283 284 286 287 288 289 289 290 292 293 295 296 295 294 295 296 297 297 297 296 296 294 295 296 296 297 298 298 297 297 298 297 296 295 295
276 276 277 279 279 280 281 283 284 285 286 287 286 286 288 289 291 293 294 294 294 294 293 295 296 296 295 295 295 294 293 295 296 297 298 298 299 300 299 298 296 293 293
275 275 277 278 278 279 281 283 283 284 285 285 286 287 287 288 289 290 292 293 293 293 292 293 294 293 294 295 295 296 296 296 296 297 298 299 300 300 299 297 296 295 294
275 274 275 276 276 278 280 281 282 283 283 283 284 284 285 286 287 290 291 291 291 292 293 292 291 291 291 292 293 294 293 294 295 296 296 297 298 298 298 298 296 295 295
274 274 274 275 275 277 279 280 281 282 283 283 283 283 283 285 286 288 289 289 289 289 289 289 290 290 290 290 290 291 292 292 293 294 295 294 295 295 295 295 296 295 295
273 273 273 274 276 277 279 280 281 282 283 282 281 282 283 283 284 286 287 287 286 286 287 287 288 288 288 290 289 289 290 291 293 293 294 294 294 294 294 294 295 296 295
273 274 274 275 276 277 278 279 281 283 284 283 284 284 283 284 286 287 286 285 285 285 285 286 286 286 287 287 288 288 287 289 290 291 292 293 294 294 294 294 294 296 296
Height
5915 5914 5913 5912 5911 5911 5910 5909 5908 5907 5906 5905 5904 5903 5902 5901 5900 5899 5898 5897 5895 5894 5892 5891 5890 5888 5887 5886 5884 5884 5882 5881 5881 5880 5880 5879 5879 5879 5878 5878 5878 5877 5877
5915 5914 5913 5912 5911 5910 5909 5908 5907 5907 5906 5905 5904 5903 5901 5900 5899 5898 5897 5896 5894 5892 5891 5889 5888 5886 5885 5884 5883 5881 5880 5879 5879 5878 5877 5877 5877 5876 5875 5875 5874 5874 5874
5914 5913 5912 5911 5910 5909 5909 5908 5907 5906 5905 5903 5902 5901 5900 5899 5898 5897 5895 5894 5892 5891 5889 5888 5886 5885 5883 5882 5881 5879 5878 5877 5876 5875 5874 5873 5873 5872 5872 5871 5871 5870 5870
5912 5911 5911 5910 5909 5908 5907 5906 5905 5904 5903 5902 5901 5900 5899 5898 5897 5895 5894 5892 5890 5888 5886 5885 5884 5882 5881 5880 5878 5877 5876 5875 5873 5872 5871 5870 5868 5868 5868 5867 5866 5866 5865
5910 5910 5909 5908 5907 5906 5906 5905 5904 5903 5902 5901 5900 5899 5897 5896 5895 5893 5891 5890 5888 5886 5884 5882 5881 5879 5878 5877 5875 5874 5873 5871 5870 5868 5867 5866 5864 5863 5863 5862 5862 5861 5861
5909 5908 5907 5906 5905 5905 5904 5903 5902 5901 5900 5899 5898 5897 5895 5894 5892 5891 5889 5887 5885 5883 5881 5879 5878 5876 5875 5873 5872 5871 5869 5868 5866 5865 5863 5862 5860 5859 5858 5858 5857 5856 5856
5907 5906 5905 5905 5904 5903 5902 5901 5900 5899 5898 5897 5896 5894 5893 5891 5890 5888 5886 5884 5882 5880 5878 5876 5874 5873 5871 5870 5869 5867 5866 5864 5862 5861 5859 5857 5856 5855 5854 5853 5852 5852 5851
5904 5904 5903 5902 5901 5900 5899 5898 5897 5896 5895 5894 5893 5891 5889 5888 5886 5884 5882 5881 5879 5877 5874 5872 5871 5869 5868 5866 5865 5863 5862 5860 5858 5856 5855 5853 5852 5850 5849 5848 5847 5847 5846
5901 5900 5900 5899 5898 5897 5896 5895 5895 5893 5892 5891 5889 5888 5886 5884 5883 5881 5879 5877 5875 5873 5871 5869 5867 5866 5864 5862 5861 5859 5857 5855 5853 5852 5850 5848 5847 5845 5844 5843 5842 5841 5841
5898 5897 5896 5896 5895 5894 5893 5892 5891 5890 5889 5887 5886 5884 5883 5881 5879 5877 5875 5873 5871 5869 5867 5865 5863 5862 5860 5858 5856 5854 5852 5850 5848 5847 5845 5844 5842 5841 5839 5838 5837 5835 5835
5895 5894 5893 5892 5891 5890 5889 5889 5887 5886 5885 5883 5882 5880 5879 5877 5875 5873 5870 5868 5867 5865 5863 5861 5859 5857 5856 5854 5851 5849 5847 5845 5843 5841 5840 5838 5837 5836 5835 5833 5832 5830 5829
5890 5889 5888 5887 5886 5886 5885 5884 5883 5882 5881 5879 5878 5876 5874 5872 5870 5868 5866 5864 5862 5860 5858 5856 5855 5853 5851 5849 5846 5844 5842 5840 5838 5836 5835 5833 5832 5831 5829 5828 5826 5825 5823
5885 5884 5883 5883 5882 5881 5880 5879 5878 5877 5876 5875 5873 5871 5869 5867 5865 5863 5861 5859 5857 5855 5853 5852 5850 5848 5846 5844 5841 5839 5837 5835 5833 5831 5829 5828 5827 5825 5824 5822 5821 5819 5818
5880 5879 5878 5878 5877 5876 5875 5874 5873 5872 5871 5870 5868 5866 5864 5862 5860 5857 5855 5853 5851 5849 5848 5846 5844 5843 5841 5838 5836 5834 5832 5830 5827 5825 5824 5822 5821 5819 5818 5816 5815 5813 5812
5874 5873 5873 5872 5871 5871 5870 5869 5868 5867 5866 5864 5862 5861 5859 5856 5854 5852 5849 5847 5845 5843 5842 5840 5838 5837 5835 5833 5830 5828 5826 5824 5822 5820 5818 5817 5815 5813 5812 5810 5808 5807 5805
5867 5867 5867 5867 5866 5865 5864 5863 5862 5861 5859 5858 5857 5855 5853 5850 5848 5845 5843 5841 5839 5837 5835 5834 5832 5831 5829 5827 5824 5822 5820 5818 5816 5814 5812 5811 5809 5807 5805 5804 5802 5800 5798
5861 5861 5861 5860 5860 5859 5858 5857 5856 5855 5853 5852 5850 5848 5846 5844 5842 5839 5837 5835 5833 5831 5829 5828 5826 5824 5822 5820 5818 5816 5814 5812 5810 5808 5806 5804 5803 5801 5799 5797 5795 5793 5791
5855 5855 5855 5854 5854 5853 5852 5851 5850 5848 5847 5845 5844 5842 5840 5837 5835 5833 5831 5829 5827 5825 5823 5821 5820 5818 5815 5813 5811 5809 5807 5805 5804 5802 5800 5798 5796 5794 5792 5791 5789 5786 5784
5848 5848 5848 5847 5847 5846 5845 5844 5843 5841 5840 5839 5837 5835 5833 5831 5829 5826 5824 5822 5820 5818 5817 5815 5813 5811 5809 5806 5804 5802 5800 5799 5797 5795 5793 5791 5789 5787 5785 5783 5781 5779 5777
5841 5841 5840 5840 5839 5839 5838 5837 5836 5834 5833 5831 5829 5828 5826 5824 5822 5819 5818 5816 5814 5812 5810 5808 5806 5804 5802 5799 5797 5795 5793 5791 5790 5788 5786 5784 5782 5780 5778 5776 5774 5772 5771
5833 5833 5832 5832 5831 5831 5830 5829 5828 5826 5825 5823 5821 5819 5817 5816 5814 5812 5810 5808 5806 5805 5803 5801 5798 5796 5794 5792 5790 5788 5785 5783 5782 5780 5778 5777 5775 5773 5771 5769 5767 5765 5763
5825 5825 5824 5824 5823 5822 5821 5820 5819 5818 5816 5814 5812 5811 5809 5807 5806 5804 5802 5800 5798 5796 5795 5793 5791 5789 5787 5785 5783 5780 5778 5776 5774 5772 5771 5769 5767 5765 5763 5761 5759 5757 5755
5817 5816 5816 5815 5815 5814 5813 5812 5810 5809 5807 5805 5804 5802 5800 5798 5797 5795 5793 5791 5790 5788 5786 5784 5783 5781 5779 5777 5775 5772 5770 5768 5766 5764 5763 5761 5760 5758 5756 5754 5752 5750 5747
5808 5807 5807 5806 5806 5805 5804 5802 5801 5799 5797 5796 5794 5793 5791 5789 5787 5786 5784 5782 5780 5779 5777 5775 5774 5772 5770 5769 5767 5764 5762 5761 5759 5757 5755 5753 5752 5750 5748 5746 5744 5742 5740
5799 5798 5798 5798 5797 5796 5794 5793 5791 5789 5788 5786 5784 5783 5781 5779 5778 5776 5774 5773 5771 5769 5767 5765 5764 5762 5761 5759 5758 5756 5754 5752 5751 5748 5747 5745 5743 5741 5740 5738 5736 5734 5732
5790 5789 5789 5788 5787 5786 5785 5783 5782 5780 5778 5777 5775 5773 5771 5770 5768 5766 5765 5762 5761 5758 5757 5755 5754 5752 5751 5750 5748 5747 5745 5743 5741 5739 5738 5736 5735 5733 5731 5730 5728 5726 5724